Location: Im Fang
(46.6019°N, 7.2397°E)
Time: 16:46:08
(UTC+00:00)

Cosmos 1844 Rocket - Pass Details

Date: 08 December 2019
Orbit: 825 x 844 km, 71.0° (Epoch: 20 January)

Event Time Altitude Azimuth Distance (km) Brightness Sun altitude
Rises 06:03:53 0° 187° (S) 3,358 6.0 -9.6°
Reaches altitude 10° 06:06:23 10° 181° (S) 2,427 5.4 -9.2°
Maximum altitude 06:11:41 47° 109° (ESE) 1,082 3.9 -8.4°
Drops below altitude 10° 06:17:00 10° 37° (NE) 2,436 5.3 -7.6°
Sets 06:19:30 0° 32° (NNE) 3,372 5.9 -7.2°
